Location: Amsterdam
(30.7274°N, 84.4357°W)
Time: 05:51:53
(UTC+00:00)

Explorer 11/Cluster Stage 4 - Pass Details

Date: 21 February 2026
Orbit: 463 x 1175 km, 28.8° (Epoch: 13 March)

Event Time Altitude Azimuth Distance (km) Brightness Sun altitude
Rises 22:16:03 0° 264° (W) 2,517 10.8 14.5°
Reaches altitude 10° 22:19:01 10° 239° (WSW) 1,601 10.6 13.9°
Maximum altitude 22:21:03 14° 204° (SSW) 1,344 8.6 13.5°
Drops below altitude 10° 22:23:06 10° 169° (S) 1,604 8.4 13.1°
Sets 22:26:05 0° 144° (SE) 2,523 9.0 12.5°
